Regional Weather Roundup
Issued by NWS

Home | Current Version | Previous Version | Text Only | Print | Product List | Glossary Off
Versions: 1 2 3 4 5 6 7 8 9 10 11 12 13 14 15 16 17 18 19 20 21 22 23 24 25 26 27 28 29 30 31 32 33 34 35 36 37 38 39 40 41 42 43 44 45 46 47 48 49 50

863
ASUS45 KBOI 252310
RWRID

IDAHO REGIONAL WEATHER ROUNDUP
NATIONAL WEATHER SERVICE BOISE ID
500 PM MDT SUN JUN 25 2017

NOTE: "FAIR" INDICATES FEW OR NO CLOUDS BELOW 12000 FEET
WITH NO SIGNIFICANT WEATHER AND/OR OBSTRUCTIONS TO VISIBILITY

IDZ012-014-260000-
SOUTHWEST IDAHO


CITY           SKY/WX    TMP DP  RH WIND       PRES   REMARKS
BOISE          SUNNY     96  31  10 E7        30.02F HX  90
CALDWELL       SUNNY     95  48  20 VRB5      30.00F HX  91
MOUNTAIN HOME  SUNNY     95  26   8 E3        30.03F
$$

IDZ016-017-260000-
SOUTHCENTRAL IDAHO


CITY           SKY/WX    TMP DP  RH WIND       PRES   REMARKS
BURLEY         SUNNY     89  38  16 NE7       30.12F
JEROME         SUNNY     91  37  15 N8        30.12F
TWIN FALLS     SUNNY     91  44  19 E8        30.11F
$$

IDZ019>023-260000-
SOUTHEAST IDAHO


CITY           SKY/WX    TMP DP  RH WIND       PRES   REMARKS
IDAHO FALLS    SUNNY     84  45  25 N6        30.21F
POCATELLO      MOSUNNY   88  42  20 N9        30.18F
REXBURG        SUNNY     82  36  19 CALM      30.23F
$$

IDZ006-010-011-018-031-032-260000-
CENTRAL IDAHO MOUNTAINS


CITY           SKY/WX    TMP DP  RH WIND       PRES   REMARKS
MCCALL         SUNNY     84  43  23 NW8       30.18F
HAILEY         SUNNY     82  45  26 SE6       30.24F
STANLEY          N/A     84  29  13 VRB3      30.28F
SALMON         SUNNY     88  39  18 N6        30.11F
CHALLIS        SUNNY     89  35  14 VRB3      30.17F
$$

IDZ002-004-006-007-026-260000-
NORTHERN IDAHO


CITY           SKY/WX    TMP DP  RH WIND       PRES   REMARKS
LEWISTON       SUNNY     97  50  20 VRB3      29.93F HX  94
LOWELL           N/A     95  55  26 CALM      29.91F HX  93
COEUR D`ALENE  MOSUNNY   90  47  22 CALM      30.03F
MULLAN PASS    MOSUNNY   77  36  22 CALM      30.29F
$$




USA.gov is the U.S. government's official web portal to all federal, state and local government web resources and services.